THOR ABLESTAR DEB, 177

Orbit data source: Space-Track

THOR ABLESTAR DEB, 177 is space debris in LEO originally from a launch on Thu, 29 Jun 1961 UTC launched from the Air Force Eastern Test Range (AFETR). Debris objects in space refer to the collection of defunct objects orbiting the Earth. Examples of debris include non-operational satellites, rocket bodies, and fragments generated from explosions, collisions, or faulty payload assembly.

Loading next visibility...
Identifier
177, 1961-015BB
Orbit
LEO
Country
Flag of USUS
Related business
Manufacturer
Unknown
Mission
Spacecraft
Bus & Motor
Unknown
Mass
Unknown
Launch date (UTC)
1961-06-29 (64 years ago)
Launch vehicle
Unknown
Launch site
Air Force Eastern Test Range (AFETR)
Object type
Payload
Rocket body
Debris
Shape & HBR
Unknown shape, 0.2 m
Radar Cross Section
Medium (>0.1 m² and <1 m²)

Expand to show TLE details & history
Last TLE update: 5 hours ago

TLE from 5 hours ago
0 THOR ABLESTAR DEB
1   177U 61015BB  25300.83201036  .00000653  00000-0  35810-3 0  9995
2   177  66.6551  76.9762 0115195 254.0262 104.8113 14.14723054308297
Epoch: 2025-10-27T19:58Z
TLE epoch observation values (Epoch: 2025-10-27T19:58:05.695Z)
Latitude
-0°
Longitude
101.02427°
Altitude
867.503 km
Speed
7.408 km/s
True Right ascension
05h 07m 54s
True Declination
0° 00' 00"
Sunlit
Object was in full shadow at epoch
Visualization orbit readout
Latitude
Unknown
Longitude
Unknown
Altitude
Unknown
Speed
Unknown
Apparent Right ascension
Unknown
Apparent Declination
Unknown
Sunlit
N/A
Visualization observer readout
Local Sidereal Time
19:54:53
Azimuth
Unknown
Elevation
Unknown
Doppler factor
Unknown
Orbital elements
Apogee altitude
924.814 km
Perigee altitude
758.478 km
Semi-major axis
7,219.783 km
Eccentricity
0.01152
Inclination
66.6551°
RAAN
76.9762°
Arg. of periapsis
254.0262°
True anomaly
106.08269°
Mean anomaly
104.8113°
Eccentric anomaly
105.44748°
Mean motion
3.53799 °/min
Orbital period
101.75 mins
BSTAR
0.0003581
Loading maneuver chart data...
Computing Atmospheric mass density...

Documentation

Showing up to 5 results
|